W4SNA-2 Weather Reports


Display with metric or nautical units.
time (UTC)temp
F
wind
direction
speed
MPH
gust
MPH
rain 1hr
in
rain 24hr
in
rain mn
in
humidity
%
barometer
mb
20260508021604 51 350 2.0 10.0 0.00 0.15 0.07 79 1014.3
20260508021105 51 318 3.0 9.0 0.00 0.15 0.07 78 1014.3
20260508020606 51 315 3.0 9.0 0.00 0.15 0.07 78 1014.2
20260508020104 51 335 4.0 10.0 0.00 0.15 0.07 78 1014.0
20260508015604 51 348 2.0 14.0 0.00 0.15 0.07 78 1013.8
20260508015106 51 324 2.0 14.0 0.00 0.16 0.07 79 1013.8
20260508014605 50 325 6.0 16.0 0.00 0.16 0.07 81 1013.7
20260508014106 50 316 5.0 16.0 0.00 0.16 0.07 80 1013.6
20260508013604 50 325 8.0 15.0 0.00 0.16 0.07 82 1013.6
20260508013106 50 326 3.0 11.0 0.00 0.16 0.07 82 1013.5
20260508012604 50 332 3.0 9.0 0.00 0.16 0.07 82 1013.5
20260508012104 51 324 3.0 8.0 0.00 0.16 0.07 80 1013.4
20260508011606 51 0 0.0 9.0 0.00 0.16 0.07 80 1013.3
20260508011106 51 319 3.0 11.0 0.00 0.17 0.07 80 1013.2
20260508010606 50 360 3.0 11.0 0.00 0.17 0.07 81 1013.0
20260508005735 50 0 0.0 11.0 0.00 0.17 0.07 83 1012.9
20260508005235 50 331 1.0 11.0 0.00 0.17 0.07 85 1012.8
20260508004735 50 331 3.0 13.0 0.00 0.17 0.07 85 1012.9
20260508004235 51 339 4.0 13.0 0.00 0.17 0.07 84 1012.9
20260508003735 51 0 0.0 21.0 0.00 0.17 0.07 85 1013.1
20260508003235 51 333 7.0 21.0 0.00 0.17 0.07 84 1012.8
20260508002735 52 333 5.0 15.0 0.00 0.17 0.07 84 1012.8
20260508002235 52 348 6.0 15.0 0.00 0.17 0.07 83 1012.8
20260508001735 52 323 6.0 13.0 0.00 0.17 0.07 85 1012.9
20260508001235 52 330 6.0 13.0 0.00 0.17 0.07 89 1012.9
20260508000735 52 314 3.0 9.0 0.00 0.17 0.07 92 1012.9
20260508000235 52 318 2.0 15.0 0.00 0.17 0.07 92 1012.7
20260507235735 52 325 2.0 15.0 0.00 0.17 0.07 94 1012.7
20260507235236 52 336 3.0 13.0 0.00 0.17 0.07 95 1012.7
20260507234735 52 325 1.0 12.0 0.00 0.17 0.07 96 1012.5
20260507234235 52 344 2.0 21.0 0.00 0.17 0.07 97 1012.5
20260507233735 52 324 4.0 21.0 0.00 0.17 0.07 98 1012.3
20260507233235 52 333 4.0 17.0 0.00 0.17 0.07 99 1012.2
20260507232735 52 310 3.0 14.0 0.00 0.17 0.07 99 1012.1
20260507232235 52 324 3.0 10.0 0.00 0.17 0.07 100 1012.1
20260507231735 52 323 2.0 10.0 0.00 0.17 0.07 100 1012.0
20260507231235 53 9 3.0 10.0 0.00 0.17 0.07 100 1011.8
20260507230735 53 323 4.0 10.0 0.00 0.17 0.07 100 1011.7
20260507230235 53 341 3.0 10.0 0.00 0.17 0.07 100 1011.7
20260507225722 53 313 4.0 11.0 0.00 0.17 0.07 100 1011.7
20260507225222 53 327 4.0 11.0 0.00 0.17 0.07 100 1011.7
20260507224722 53 337 3.0 11.0 0.00 0.17 0.07 100 1011.7
20260507224224 53 0 0.0 3.0 0.00 0.17 0.07 100 1011.6
20260507223722 53 0 0.0 1.0 0.00 0.17 0.07 100 1011.6
20260507223222 54 0 0.0 1.0 0.00 0.17 0.07 100 1011.6
20260507222722 53 0 0.0 2.0 0.00 0.17 0.07 100 1011.5
20260507222225 53 0 0.0 2.0 0.00 0.17 0.07 100 1011.4
20260507221722 53 0 0.0 6.0 0.00 0.17 0.07 100 1011.4
20260507221222 53 0 0.0 6.0 0.00 0.17 0.07 100 1011.4
20260507220722 53 0 0.0 3.0 0.00 0.17 0.07 100 1011.3
20260507220222 54 0 0.0 1.0 0.00 0.17 0.07 100 1011.2
20260507215722 54 0 0.0 11.0 0.00 0.17 0.07 100 1011.1
20260507215222 54 335 3.0 11.0 0.00 0.17 0.07 100 1010.9
20260507214722 54 335 2.0 11.0 0.00 0.17 0.07 100 1010.9
20260507214222 54 0 0.0 11.0 0.00 0.17 0.07 100 1010.9
20260507213722 53 343 2.0 10.0 0.00 0.17 0.07 100 1010.9
20260507213223 54 0 0.0 0.0 0.00 0.17 0.07 100 1011.0
20260507212722 54 0 0.0 4.0 0.00 0.17 0.07 100 1011.0
20260507212222 53 0 0.0 4.0 0.00 0.17 0.07 100 1011.0
20260507210847 53 345 4.0 12.0 0.00 0.17 0.07 100 1010.7
20260507210347 52 0 0.0 9.0 0.00 0.17 0.07 100 1010.7
20260507205847 52 0 0.0 9.0 0.00 0.17 0.07 100 1010.7
20260507205347 52 346 1.0 10.0 0.00 0.17 0.07 100 1010.7
20260507204847 52 346 5.0 10.0 0.00 0.17 0.07 100 1010.6
20260507203429 52 357 1.0 13.0 0.00 0.17 0.07 100 1010.2
20260507202927 52 59 5.0 11.0 0.01 0.17 0.07 100 1010.5
20260507202425 52 342 1.0 9.0 0.03 0.17 0.07 100 1010.6
20260507201927 52 342 3.0 14.0 0.04 0.17 0.07 100 1010.8
20260507201425 52 336 6.0 14.0 0.04 0.17 0.07 100 1010.7
20260507200928 52 340 8.0 14.0 0.04 0.17 0.07 100 1010.9
20260507200425 52 356 6.0 14.0 0.04 0.17 0.07 100 1011.8
20260507195927 52 343 5.0 14.0 0.04 0.17 0.07 100 1011.7
20260507195428 52 344 7.0 12.0 0.04 0.17 0.07 100 1011.7
20260507194928 52 343 7.0 11.0 0.04 0.17 0.07 100 1011.6
20260507194426 52 349 6.0 15.0 0.04 0.17 0.07 100 1011.8
20260507193925 53 338 6.0 15.0 0.05 0.17 0.07 100 1011.8
20260507193425 52 347 9.0 15.0 0.05 0.17 0.07 100 1011.5
20260507192925 52 339 8.0 15.0 0.04 0.16 0.06 100 1011.9
20260507192427 52 339 7.0 13.0 0.02 0.14 0.04 100 1012.2
20260507191925 52 345 7.0 12.0 0.01 0.13 0.03 100 1011.6
20260507191425 52 336 7.0 17.0 0.01 0.13 0.03 100 1011.6
20260507190925 52 342 9.0 17.0 0.01 0.13 0.03 100 1011.5
20260507190425 52 343 10.0 15.0 0.01 0.13 0.03 100 1011.5
20260507190134 52 341 3.0 12.0 0.01 0.13 0.03 100 1011.7
20260507185925 52 341 3.0 12.0 0.01 0.13 0.03 100 1011.7
20260507185425 52 343 1.0 13.0 0.01 0.13 0.03 100 1011.6
20260507184925 52 340 6.0 15.0 0.01 0.13 0.03 100 1011.7
20260507184425 52 341 8.0 17.0 0.01 0.13 0.03 100 1011.6
20260507183927 52 346 9.0 17.0 0.00 0.12 0.02 100 1011.8
20260507183206 52 346 6.0 17.0 0.00 0.12 0.02 100 1011.7
20260507182704 53 346 10.0 18.0 0.00 0.12 0.02 100 1011.6
20260507182204 53 343 10.0 18.0 0.00 0.12 0.02 100 1011.7
20260507181704 53 349 8.0 18.0 0.00 0.12 0.02 100 1011.7
20260507181205 53 0 0.0 17.0 0.00 0.12 0.02 100 1011.7
20260507180704 53 359 1.0 17.0 0.00 0.12 0.02 100 1011.6
20260507180204 53 360 8.0 14.0 0.02 0.12 0.02 100 1011.6
20260507175705 53 10 7.0 13.0 0.02 0.13 0.02 100 1011.6
20260507175204 54 347 7.0 11.0 0.02 0.13 0.02 100 1011.8
20260507174704 54 346 5.0 13.0 0.02 0.13 0.02 100 1011.8
20260507174205 54 11 6.0 13.0 0.02 0.13 0.02 100 1011.9
20260507173204 55 1 2.0 8.0 0.02 0.14 0.02 100 1011.9
20260507172704 55 346 1.0 9.0 0.02 0.14 0.02 100 1011.9
20260507172204 55 340 2.0 10.0 0.02 0.14 0.02 100 1012.0
20260507171705 55 341 3.0 11.0 0.02 0.14 0.02 100 1011.9
20260507171206 55 328 5.0 12.0 0.02 0.14 0.02 100 1011.9
20260507170704 55 350 3.0 12.0 0.02 0.14 0.02 100 1011.9
20260507170204 55 352 5.0 12.0 0.00 0.12 0.00 100 1011.9
20260507165706 55 3 6.0 16.0 0.00 0.12 0.00 100 1011.8
20260507165205 55 333 4.0 16.0 0.00 0.12 0.00 100 1011.8
20260507164705 56 340 6.0 12.0 0.00 0.12 0.00 100 1011.7
20260507164204 56 360 5.0 13.0 0.00 0.12 0.00 100 1011.6
20260507163704 56 340 7.0 13.0 0.00 0.12 0.00 100 1011.4
20260507163204 56 347 5.0 10.0 0.00 0.12 0.00 100 1011.5
20260507162626 56 348 11.0 18.0 0.00 0.12 0.00 100 1011.6
20260507162031 56 336 5.0 12.0 0.00 0.12 0.00 100 1011.7
20260507161016 56 353 5.0 12.0 0.00 0.12 0.00 100 1011.8
20260507155619 56 346 4.0 8.0 0.00 0.13 0.12 100 1012.0
20260507155123 57 345 1.0 4.0 0.00 0.13 0.12 100 1012.1
20260507154619 57 0 0.0 4.0 0.00 0.13 0.12 100 1012.0
20260507154121 56 0 0.0 5.0 0.00 0.13 0.12 100 1011.9
20260507153618 56 345 2.0 5.0 0.00 0.13 0.12 100 1011.8
20260507153118 56 0 0.0 3.0 0.00 0.13 0.12 100 1011.8
20260507152618 56 0 0.0 5.0 0.00 0.13 0.12 100 1011.8
20260507152118 56 342 2.0 6.0 0.00 0.13 0.12 100 1011.9
20260507151618 56 0 0.0 11.0 0.00 0.13 0.12 100 1011.9
20260507151126 56 340 2.0 11.0 0.00 0.13 0.12 100 1012.0
20260507150619 56 340 2.0 6.0 0.00 0.13 0.12 100 1012.1
20260507150118 57 0 0.0 9.0 0.00 0.13 0.12 100 1012.2
20260507145618 57 0 0.0 10.0 0.00 0.13 0.12 100 1012.1
20260507145118 58 338 3.0 11.0 0.00 0.13 0.12 99 1012.1
20260507144619 58 335 5.0 11.0 0.00 0.13 0.12 100 1012.0
20260507144119 59 322 4.0 11.0 0.00 0.13 0.12 100 1012.2
20260507143619 61 0 0.0 0.0 0.00 0.13 0.12 100 1012.1
20260507143118 61 0 0.0 0.0 0.00 0.13 0.12 100 1012.0
20260507142618 60 0 0.0 0.0 0.00 0.13 0.12 100 1011.9
20260507142118 61 0 0.0 0.0 0.00 0.13 0.12 100 1011.7
20260507141620 60 0 0.0 0.0 0.00 0.13 0.12 100 1011.8
20260507141118 60 0 0.0 0.0 0.00 0.13 0.12 100 1011.9
20260507140620 60 0 0.0 0.0 0.00 0.13 0.12 100 1011.7
20260507140118 60 0 0.0 0.0 0.00 0.13 0.12 100 1011.6
20260507135706 60 0 0.0 0.0 0.00 0.13 0.12 100 1011.5
20260507135620 60 0 0.0 0.0 0.00 0.13 0.12 100 1011.5
20260507134935 60 0 0.0 0.0 0.00 0.13 0.12 100 1011.6
20260507134436 60 0 0.0 0.0 0.00 0.13 0.12 100 1011.8
20260507133935 61 0 0.0 0.0 0.00 0.13 0.12 100 1011.7
20260507133435 61 0 0.0 0.0 0.00 0.13 0.12 100 1011.7
20260507132939 61 0 0.0 0.0 0.00 0.13 0.12 100 1011.7
20260507132435 61 0 0.0 0.0 0.00 0.13 0.12 100 1011.9
20260507131936 61 0 0.0 0.0 0.00 0.13 0.12 100 1011.7
20260507131437 61 0 0.0 0.0 0.00 0.13 0.12 100 1012.0
20260507130937 61 0 0.0 0.0 0.00 0.13 0.12 100 1012.1
20260507130435 60 0 0.0 0.0 0.00 0.13 0.12 100 1012.5
20260507125935 60 0 0.0 0.0 0.01 0.13 0.12 100 1012.7
20260507125435 60 0 0.0 0.0 0.01 0.13 0.12 100 1012.7
20260507124935 60 0 0.0 0.0 0.01 0.13 0.12 100 1012.6
20260507124441 60 0 0.0 0.0 0.01 0.13 0.12 100 1012.5
20260507123941 60 0 0.0 0.0 0.01 0.13 0.12 100 1012.7
20260507123437 60 0 0.0 0.0 0.01 0.13 0.12 100 1013.1
20260507122935 60 0 0.0 1.0 0.01 0.13 0.12 100 1013.0
20260507122435 60 0 0.0 1.0 0.01 0.13 0.12 100 1013.0
20260507121935 59 0 0.0 0.0 0.01 0.13 0.12 100 1013.1
20260507121438 59 0 0.0 0.0 0.01 0.13 0.12 100 1013.2
20260507120935 59 0 0.0 7.0 0.01 0.13 0.12 100 1013.2
20260507120435 59 0 0.0 7.0 0.01 0.13 0.12 100 1012.7
20260507115936 59 0 0.0 3.0 0.00 0.12 0.11 100 1012.6
20260507115436 59 0 0.0 0.0 0.00 0.12 0.11 100 1012.7
20260507114936 59 0 0.0 0.0 0.00 0.12 0.11 100 1012.4
20260507114438 59 0 0.0 2.0 0.00 0.12 0.11 100 1012.6
20260507113935 60 0 0.0 2.0 0.00 0.12 0.11 100 1012.7
20260507113436 60 0 0.0 0.0 0.00 0.12 0.11 100 1012.5
20260507112935 60 0 0.0 0.0 0.00 0.12 0.11 100 1012.6
20260507112435 60 0 0.0 0.0 0.00 0.12 0.11 100 1012.6
20260507111939 60 0 0.0 0.0 0.00 0.12 0.11 100 1012.3
20260507111435 60 0 0.0 0.0 0.00 0.12 0.11 100 1012.1
20260507110940 60 0 0.0 2.0 0.00 0.12 0.11 100 1012.0
20260507110439 60 0 0.0 3.0 0.00 0.12 0.11 100 1012.2
20260507110032 60 0 0.0 3.0 0.00 0.12 0.11 100 1012.4
20260507105935 60 0 0.0 3.0 0.00 0.12 0.11 100 1012.4
20260507105436 60 0 0.0 0.0 0.00 0.12 0.11 100 1012.4
20260507104936 60 0 0.0 0.0 0.00 0.12 0.11 100 1012.1
20260507104436 60 0 0.0 0.0 0.00 0.12 0.11 100 1012.1
20260507103936 60 0 0.0 5.0 0.00 0.12 0.11 100 1012.1
20260507103436 60 0 0.0 5.0 0.00 0.12 0.11 100 1012.3
20260507102938 60 0 0.0 5.0 0.00 0.12 0.11 100 1012.4
20260507102515 60 0 0.0 5.0 0.00 0.12 0.11 100 1012.3
20260507102435 60 0 0.0 5.0 0.00 0.12 0.11 100 1012.3
20260507101935 59 0 0.0 0.0 0.00 0.12 0.11 100 1012.2
20260507101437 59 0 0.0 0.0 0.00 0.12 0.11 100 1011.9
20260507100935 59 0 0.0 0.0 0.00 0.12 0.11 99 1012.0
20260507100435 59 0 0.0 2.0 0.00 0.12 0.11 100 1012.0
20260507095935 60 0 0.0 2.0 0.00 0.12 0.11 99 1011.9
20260507095435 60 0 0.0 2.0 0.00 0.12 0.11 100 1012.0
20260507094936 60 0 0.0 5.0 0.00 0.12 0.11 100 1012.0
20260507094437 60 0 0.0 5.0 0.00 0.12 0.11 100 1011.9
20260507093820 61 0 0.0 7.0 0.00 0.12 0.11 100 1011.8
20260507093320 61 0 0.0 7.0 0.00 0.12 0.11 100 1011.8
20260507092319 60 277 1.0 4.0 0.00 0.12 0.11 100 1011.6
20260507091819 60 0 0.0 5.0 0.00 0.12 0.11 100 1011.5
20260507091319 60 0 0.0 5.0 0.00 0.12 0.11 100 1011.7
20260507090819 60 321 1.0 6.0 0.00 0.12 0.11 100 1011.9
20260507090319 60 321 2.0 11.0 0.00 0.12 0.11 100 1012.0
20260507085826 60 321 2.0 11.0 0.00 0.12 0.11 100 1012.4
20260507085319 60 321 1.0 10.0 0.00 0.12 0.11 100 1012.5
20260507084819 60 321 2.0 13.0 0.00 0.12 0.11 100 1012.3
20260507084319 60 320 4.0 13.0 0.00 0.12 0.11 100 1012.3
20260507083819 60 319 4.0 13.0 0.00 0.12 0.11 100 1012.3
20260507083319 60 319 4.0 13.0 0.00 0.12 0.11 100 1012.3
20260507082821 60 293 1.0 13.0 0.00 0.12 0.11 100 1012.3
20260507082319 60 298 3.0 13.0 0.00 0.12 0.11 100 1012.5
20260507081819 59 317 1.0 12.0 0.00 0.12 0.11 100 1012.4
20260507081319 59 305 3.0 14.0 0.00 0.12 0.11 100 1012.3
20260507080819 59 279 4.0 14.0 0.00 0.12 0.11 100 1012.0
20260507080319 59 266 2.0 11.0 0.00 0.12 0.11 100 1012.5
20260507075821 59 276 1.0 13.0 0.00 0.12 0.11 100 1012.3
20260507075319 59 277 3.0 14.0 0.00 0.12 0.11 100 1012.2
20260507074820 59 287 5.0 15.0 0.00 0.12 0.11 100 1012.3
20260507074319 59 285 2.0 15.0 0.00 0.12 0.11 100 1012.3
20260507073819 59 271 2.0 12.0 0.00 0.12 0.11 100 1012.4
20260507073319 59 219 3.0 12.0 0.00 0.12 0.11 100 1012.1
20260507072822 59 210 2.0 9.0 0.00 0.12 0.11 100 1012.2
20260507071821 59 198 3.0 10.0 0.00 0.12 0.11 100 1012.2
20260507071319 59 207 1.0 8.0 0.00 0.12 0.11 100 1012.4
20260507070818 59 257 1.0 11.0 0.00 0.12 0.11 100 1012.5
20260507070319 59 277 1.0 11.0 0.00 0.12 0.11 100 1012.4
20260507065821 59 258 1.0 11.0 0.00 0.12 0.11 100 1012.6
20260507065319 59 0 0.0 11.0 0.00 0.12 0.11 100 1012.8
20260507064819 59 229 3.0 13.0 0.00 0.12 0.11 100 1012.7
20260507064320 59 206 3.0 16.0 0.00 0.12 0.11 100 1012.3
20260507063819 59 207 3.0 18.0 0.00 0.12 0.11 100 1012.7
20260507063318 59 204 7.0 21.0 0.00 0.12 0.11 100 1012.6
20260507062821 59 202 10.0 21.0 0.00 0.12 0.11 100 1012.5
20260507062319 60 197 6.0 18.0 0.00 0.12 0.11 100 1012.6
20260507061820 60 201 7.0 19.0 0.00 0.12 0.11 99 1012.4
20260507061319 60 194 9.0 20.0 0.00 0.12 0.11 100 1012.6
20260507060819 60 190 10.0 22.0 0.00 0.12 0.11 100 1012.7
20260507060319 60 192 12.0 23.0 0.00 0.12 0.11 100 1012.7
20260507055819 60 193 11.0 23.0 0.01 0.12 0.11 100 1013.2
20260507055319 61 197 6.0 13.0 0.01 0.12 0.11 100 1013.6
20260507054820 61 220 2.0 13.0 0.01 0.12 0.11 100 1014.0
20260507054318 61 240 1.0 9.0 0.01 0.12 0.11 100 1014.1
20260507053819 61 256 1.0 8.0 0.01 0.12 0.11 99 1014.0
20260507053319 61 274 1.0 6.0 0.01 0.12 0.11 100 1014.1
20260507052818 61 0 0.0 8.0 0.01 0.12 0.11 99 1014.4
20260507052318 61 231 1.0 12.0 0.01 0.12 0.11 99 1014.5
20260507051818 61 236 2.0 12.0 0.01 0.12 0.11 99 1014.7
20260507051318 61 201 1.0 8.0 0.01 0.12 0.11 100 1014.8
20260507050818 61 192 1.0 6.0 0.01 0.12 0.11 100 1014.7
20260507050319 61 0 0.0 6.0 0.01 0.12 0.11 100 1014.8
20260507045819 61 197 1.0 6.0 0.00 0.11 0.10 99 1014.8
20260507045319 61 211 1.0 8.0 0.00 0.11 0.10 99 1015.2
20260507044820 61 207 1.0 9.0 0.00 0.11 0.10 99 1014.9
20260507044319 61 209 3.0 10.0 0.00 0.11 0.10 99 1014.5
20260507043819 61 233 1.0 10.0 0.00 0.11 0.10 99 1014.5
20260507043318 61 0 0.0 8.0 0.00 0.11 0.10 99 1014.5
20260507042824 62 0 0.0 7.0 0.00 0.11 0.10 99 1014.6
20260507041858 62 211 1.0 10.0 0.00 0.11 0.10 99 1014.1
20260507041358 62 214 2.0 10.0 0.01 0.11 0.10 99 1014.1
20260507040858 62 203 2.0 9.0 0.02 0.11 0.10 100 1014.4
20260507040023 62 206 3.0 10.0 0.02 0.11 0.10 99 1014.2
20260507035523 62 209 3.0 8.0 0.03 0.11 0.10 99 1014.3
20260507035023 62 207 1.0 9.0 0.04 0.11 0.10 99 1014.1
20260507034523 62 208 3.0 9.0 0.04 0.11 0.10 99 1014.0
20260507034023 62 203 2.0 9.0 0.04 0.11 0.10 99 1013.8
20260507033535 62 194 4.0 9.0 0.05 0.11 0.10 99 1013.7
20260507033023 62 208 4.0 11.0 0.05 0.11 0.10 99 1013.8
20260507032523 62 189 5.0 17.0 0.05 0.11 0.10 99 1013.8
20260507032024 62 189 5.0 20.0 0.05 0.11 0.10 99 1013.1
20260507031523 62 161 11.0 20.0 0.04 0.10 0.09 99 1013.5
20260507031023 62 0 0.0 6.0 0.03 0.09 0.08 99 1015.4
20260507030523 62 0 0.0 8.0 0.03 0.09 0.08 99 1015.3
20260507030023 62 235 1.0 8.0 0.04 0.09 0.08 99 1015.1
20260507025523 63 0 0.0 11.0 0.03 0.08 0.07 99 1015.1
20260507025023 63 0 0.0 11.0 0.02 0.07 0.06 99 1015.3
20260507024523 63 247 2.0 10.0 0.02 0.07 0.06 99 1015.3
20260507024023 63 207 1.0 10.0 0.03 0.07 0.06 99 1015.4
20260507023524 63 196 2.0 10.0 0.02 0.06 0.05 99 1015.3
20260507023023 63 197 2.0 16.0 0.02 0.06 0.05 99 1015.1
20260507022523 63 187 5.0 16.0 0.02 0.06 0.05 99 1014.7
20260507022023 63 189 3.0 15.0 0.02 0.06 0.05 99 1014.3